Вернуться в каталог

STARLINK-37013

АктивенСвязьSSO
NORAD 68162·PAYLOAD·🇺🇸 United States

Запущен Mar 13, 2026 с Vandenberg Space Force Base

Loading…

Ближайшие Пролёты (ближайшие 24 часа)

TLE

СвежийSource: CelesTrak SupGP

Эпоха: Sep 15, 2026, 04:17 UTC

1 68162C 26049W   26258.17895833 -.00054309  00000+0 -16866-2 0  2580
2 68162  97.2835 278.1998 0001406  87.8379 312.5840 15.33452739    12

Отслеживайте STARLINK-37013 в реальном времени с AllMySat

Download on the App Store